Overview Statistics Trail Chart Weather Telemetry Raw packets
 

This is the latest recevied weather packets stored in our database for station/object IZ5ILU-16. If no packets are shown the sender has not sent any weather packets the latest 10 day(s).

<< 19 20 21 22 23 24 25 >>
Time Temp. Humidity Pressure Rain* Wind** Luminosity Snow
1788370903 27.22° C 64% 1017.9 hPa 0 mm - - -
1788370303 27.78° C 61% 1017.9 hPa 0 mm - - -
1788369703 27.78° C 60% 1017.5 hPa 0 mm - - -
1788369103 27.78° C 60% 1017.4 hPa 0 mm - - -
1788368503 28.33° C 58% 1017.4 hPa 0 mm - - -
1788367903 28.89° C 58% 1017.4 hPa 0 mm - - -
1788367303 28.89° C 56% 1017.5 hPa 0 mm - - -
1788366703 28.89° C 52% 1017.6 hPa 0 mm - - -
1788366103 29.44° C 50% 1017.6 hPa 0 mm - - -
1788365503 29.44° C 54% 1017.5 hPa 0 mm - - -
1788364903 29.44° C 56% 1017.4 hPa 0 mm - - -
1788364303 28.89° C 59% 1017.5 hPa 0 mm - - -
1788363703 28.89° C 57% 1017.6 hPa 0 mm - - -
1788363103 30° C 56% 1017.5 hPa 0 mm - - -
1788362503 30° C 55% 1017.5 hPa 0 mm - - -
1788361903 30.56° C 55% 1017.5 hPa 0 mm - - -
1788361303 30.56° C 55% 1017.5 hPa 0 mm - - -
1788360703 30.56° C 56% 1017.6 hPa 0 mm - - -
1788360103 30° C 57% 1017.4 hPa 0 mm - - -
1788359503 30° C 57% 1017.3 hPa 0 mm - - -
1788358908 30.56° C 57% 1017.6 hPa 0 mm - - -
1788358303 30° C 58% 1017.5 hPa 0 mm - - -
1788357703 30° C 56% 1017.5 hPa 0 mm - - -
1788357103 29.44° C 56% 1017.6 hPa 0 mm - - -
1788356503 29.44° C 56% 1017.9 hPa 0 mm - - -

* Rain latest hour (hover to see other rain measurements)
** Current wind speed in m/s (hover to see current wind gust speed)